Location: Riverside Cemetery
(38.3047°N, 99.7773°W)
Time: 07:25:15
(UTC+00:00)

Cosmos 1727 Rocket - Pass Details

Date: 19 September 2020
Orbit: 960 x 997 km, 82.9° (Epoch: 21 October)

Event Time Altitude Azimuth Distance (km) Brightness Sun altitude
Rises 10:54:06 0° 189° (S) 3,701 6.8 -18.3°
Reaches altitude 10° 10:56:37 10° 190° (S) 2,756 6.1 -17.9°
Maximum altitude 11:02:57 79° 276° (W) 1,019 4.0 -16.7°
Drops below altitude 10° 11:09:19 10° 4° (N) 2,763 6.6 -15.4°
Sets 11:11:51 0° 6° (N) 3,711 7.3 -15.0°
